EW3230 Weather Reports


time (UTC)temp
C
wind
direction
speed
KPH
gust
KPH
rain 1hr
cm
rain 24hr
cm
rain mn
cm
humidity
%
barometer
mb
20260506232347 13 207 3.2 9.7 0.10 0.10 0.10 69 1008.1
20260506231348 13 190 3.2 12.9 0.10 0.10 0.10 69 1008.3
20260506230850 13 109 3.2 9.7 0.08 0.08 0.08 70 1008.4
20260506225347 13 194 3.2 14.5 0.05 0.05 0.05 71 1008.5
20260506224347 13 236 1.6 8.0 0.03 0.03 0.03 72 1008.5
20260506223347 13 235 3.2 16.1 0.03 0.03 0.03 74 1008.5
20260506222844 14 188 4.8 12.9 0.00 0.00 0.00 76 1008.8
20260506221340 14 223 3.2 12.9 0.00 0.00 0.00 78 1008.8
20260506220341 15 198 3.2 9.7 0.00 0.00 0.00 79 1008.9
20260506215341 15 222 4.8 11.3 0.00 0.00 0.00 80 1008.9
20260506214341 15 210 3.2 6.4 0.00 0.00 0.00 80 1008.9
20260506213342 15 195 4.8 12.9 0.00 0.00 0.00 80 1009.0
20260506212345 15 225 4.8 12.9 0.00 0.00 0.00 80 1009.2
20260506212340 15 158 3.2 11.3 0.00 0.00 0.00 80 1009.0
20260506210341 15 198 3.2 11.3 0.00 0.00 0.00 81 1009.3
20260506205335 15 200 3.2 12.9 0.00 0.00 0.00 81 1009.3
20260506204838 15 229 3.2 14.5 0.00 0.00 0.00 81 1009.2
20260506203336 15 212 4.8 17.7 0.00 0.00 0.00 81 1009.3
20260506202838 15 217 4.8 14.5 0.00 0.00 0.00 81 1009.5
20260506201335 15 225 3.2 9.7 0.00 0.00 0.00 81 1009.5
20260506200335 15 186 4.8 17.7 0.00 0.00 0.00 81 1009.7
20260506195336 16 242 4.8 14.5 0.00 0.00 0.00 80 1009.8
20260506194336 16 155 4.8 17.7 0.00 0.00 0.00 80 1009.8
20260506193335 16 191 4.8 12.9 0.00 0.00 0.00 80 1010.0
20260506192334 16 242 4.8 12.9 0.00 0.00 0.00 80 1010.0
20260506191333 16 198 3.2 9.7 0.00 0.00 0.00 79 1010.1
20260506190345 16 206 4.8 19.3 0.00 0.00 0.00 79 1010.0
20260506185333 17 210 3.2 14.5 0.00 0.00 0.00 78 1010.2
20260506184333 17 205 4.8 14.5 0.00 0.00 0.00 79 1010.3
20260506183333 16 221 6.4 16.1 0.00 0.00 0.00 79 1010.5
20260506182333 17 192 6.4 12.9 0.00 0.00 0.00 78 1010.7
20260506181835 17 198 4.8 12.9 0.00 0.00 0.00 77 1010.9
20260506180334 17 174 6.4 17.7 0.00 0.00 0.00 77 1011.0
20260506175333 18 207 6.4 14.5 0.00 0.00 0.00 76 1011.1
20260506174333 18 203 6.4 19.3 0.00 0.00 0.00 76 1011.4
20260506173332 18 221 8.0 19.3 0.00 0.00 0.00 76 1011.3
20260506172330 18 110 9.7 17.7 0.00 0.00 0.00 76 1011.2
20260506171332 17 218 8.0 17.7 0.00 0.00 0.00 77 1011.5
20260506170333 17 228 6.4 14.5 0.00 0.00 0.00 78 1011.5
20260506165332 17 239 8.0 22.5 0.00 0.00 0.00 78 1011.7
20260506164332 17 215 6.4 14.5 0.00 0.00 0.00 77 1011.8
20260506163330 17 221 4.8 11.3 0.00 0.00 0.00 76 1011.9
20260506162328 18 136 4.8 12.9 0.00 0.00 0.00 75 1012.1
20260506161328 18 236 6.4 14.5 0.00 0.00 0.00 75 1012.2
20260506160327 18 198 6.4 14.5 0.00 0.00 0.00 75 1012.2
20260506155828 18 312 8.0 22.5 0.00 0.00 0.00 75 1012.3
20260506154828 18 214 8.0 19.3 0.00 0.00 0.00 75 1012.3
20260506153327 18 209 8.0 20.9 0.00 0.00 0.00 76 1012.4
20260506152326 18 194 8.0 19.3 0.00 0.00 0.00 76 1012.7
20260506151324 17 152 6.4 24.1 0.00 0.00 0.00 76 1012.7
20260506144842 17 296 6.4 14.5 0.00 0.00 0.00 76 1012.7
20260506143325 17 194 6.4 14.5 0.00 0.00 0.00 76 1012.6
20260506142326 18 211 4.8 17.7 0.00 0.00 0.00 75 1012.3
20260506141824 18 228 4.8 14.5 0.00 0.00 0.00 74 1012.3
20260506140322 18 184 6.4 14.5 0.00 0.00 0.00 75 1012.4
20260506135321 18 207 6.4 11.3 0.00 0.00 0.00 76 1012.6
20260506134822 18 200 4.8 12.9 0.00 0.00 0.00 77 1012.8
20260506133321 17 191 6.4 20.9 0.00 0.00 0.00 78 1012.8
20260506132325 17 245 8.0 17.7 0.00 0.00 0.00 78 1012.6
20260506131322 17 152 6.4 12.9 0.00 0.00 0.00 78 1012.5
20260506130320 17 180 4.8 12.9 0.00 0.00 0.00 79 1012.3
20260506125320 17 215 6.4 14.5 0.00 0.00 0.00 79 1012.4
20260506124320 17 203 6.4 14.5 0.00 0.00 0.00 79 1012.7
20260506123318 17 191 4.8 12.9 0.00 0.00 0.00 80 1012.8
20260506122314 16 198 4.8 12.9 0.00 0.00 0.00 80 1012.8
20260506121315 16 210 4.8 11.3 0.00 0.00 0.00 80 1012.8
20260506120314 16 277 4.8 14.5 0.00 0.00 0.00 81 1012.8
20260506115313 15 148 3.2 12.9 0.00 0.00 0.00 81 1013.0
20260506113311 14 197 4.8 11.3 0.00 0.00 0.00 80 1013.2
20260506112310 14 239 3.2 11.3 0.00 0.00 0.00 80 1013.1
20260506111317 14 225 3.2 11.3 0.00 0.00 0.00 79 1012.9
20260506110259 14 236 3.2 8.0 0.00 0.00 0.00 78 1013.1
20260506105259 13 222 3.2 9.7 0.00 0.00 0.00 78 1013.1
20260506104259 13 187 3.2 11.3 0.00 0.00 0.00 77 1013.3
20260506102757 13 187 3.2 12.9 0.00 0.00 0.00 77 1013.1
20260506101256 13 187 3.2 9.7 0.00 0.00 0.00 77 1013.0
20260506100252 13 167 1.6 9.7 0.00 0.00 0.00 76 1012.9
20260506095253 13 210 1.6 8.0 0.00 0.00 0.00 77 1012.9
20260506094747 13 221 3.2 12.9 0.00 0.00 0.00 77 1013.0
20260506093246 13 214 3.2 8.0 0.00 0.00 0.00 77 1013.0
20260506092244 13 241 3.2 11.3 0.00 0.00 0.00 77 1013.1
20260506091249 13 214 1.6 8.0 0.00 0.00 0.00 76 1013.2
20260506091243 13 250 3.2 8.0 0.00 0.00 0.00 76 1013.2
20260506085745 14 245 1.6 11.3 0.00 0.00 0.00 77 1013.1
20260506084241 14 183 3.2 12.9 0.00 0.00 0.00 76 1013.3
20260506083240 14 203 3.2 11.3 0.00 0.00 0.00 75 1013.3
20260506082242 13 205 3.2 14.5 0.00 0.00 0.00 75 1013.2
20260506081242 13 123 1.6 8.0 0.00 0.00 0.00 76 1013.3
20260506080238 13 224 3.2 9.7 0.00 0.00 0.00 76 1013.3
20260506073236 13 169 3.2 11.3 0.00 0.00 0.00 76 1013.1
20260506072234 13 212 3.2 9.7 0.00 0.00 0.00 77 1013.2
20260506071236 13 250 3.2 12.9 0.00 0.00 0.00 78 1013.1
20260506070235 13 181 3.2 9.7 0.00 0.00 0.00 79 1013.1
20260506062230 13 193 1.6 8.0 0.00 0.00 0.00 79 1013.0
20260506061729 13 134 1.6 6.4 0.00 0.00 0.00 80 1013.1
20260506060228 13 153 3.2 8.0 0.00 0.00 0.00 80 1013.2
20260506051219 14 221 1.6 8.0 0.00 0.00 0.00 80 1013.6
20260506050722 13 155 3.2 8.0 0.00 0.00 0.00 80 1013.7
20260506044221 13 260 3.2 9.7 0.00 0.00 0.00 80 1013.6
20260506043219 13 221 3.2 8.0 0.00 0.00 0.00 80 1013.7
20260506042220 13 235 1.6 6.4 0.00 0.00 0.00 80 1013.6
20260506041218 13 212 3.2 9.7 0.00 0.00 0.00 80 1013.6
20260506040219 13 158 3.2 9.7 0.00 0.00 0.00 80 1013.6
20260506035218 13 141 1.6 8.0 0.00 0.00 0.00 81 1013.5
20260506034221 13 241 3.2 12.9 0.00 0.00 0.00 81 1013.6
20260506033719 13 215 1.6 9.7 0.00 0.00 0.00 81 1013.6
20260506032212 13 191 3.2 9.7 0.00 0.00 0.00 81 1013.4
20260506031214 13 235 3.2 12.9 0.00 0.00 0.00 81 1013.3
20260506030214 13 215 1.6 6.4 0.00 0.00 0.00 81 1013.3
20260506025214 13 250 3.2 8.0 0.00 0.00 0.00 81 1013.3
20260506024212 13 176 3.2 14.5 0.00 0.00 0.00 81 1013.3
20260506023209 13 163 1.6 12.9 0.00 0.00 0.00 81 1013.3
20260506022206 13 191 1.6 6.4 0.00 0.00 0.00 81 1013.4
20260506021206 13 203 1.6 8.0 0.00 0.00 0.00 80 1013.4
20260506020706 13 210 1.6 8.0 0.00 0.00 0.00 80 1013.5
20260506015202 13 208 1.6 6.4 0.00 0.00 0.00 79 1013.5
20260506014703 13 203 3.2 11.3 0.00 0.00 0.00 78 1013.4
20260506013203 13 203 3.2 11.3 0.00 0.00 0.00 78 1013.2
20260506012203 13 191 3.2 11.3 0.00 0.00 0.00 78 1013.2
20260506011202 13 229 3.2 9.7 0.00 0.00 0.00 78 1013.3
20260506010159 13 197 3.2 8.0 0.00 0.00 0.00 78 1013.2
20260506005158 13 197 3.2 8.0 0.00 0.00 0.00 78 1013.2
20260506004701 13 218 1.6 8.0 0.00 0.00 0.00 78 1013.0
20260506004316 13 155 3.2 8.0 0.00 0.00 0.00 78 1012.8
20260506002158 14 198 3.2 11.3 0.00 0.00 0.00 78 1012.2
20260506001200 14 197 3.2 12.9 0.00 0.00 0.00 78 1011.8
20260506000159 14 206 4.8 9.7 0.00 0.00 0.00 78 1011.7
20260505235200 14 194 4.8 12.9 0.00 0.00 0.00 78 1011.6
20260505234159 14 240 4.8 11.3 0.00 0.00 0.00 79 1011.5
20260505233158 14 257 3.2 12.9 0.00 0.00 0.00 79 1011.5